This demonstration page uses our WeatherBlox Daily Observations layout. Learn more.

Left ArrowRight Arrow

44.89941, -97.11507

Hourly Observations for November 12, 2019

Temp ( °F °C ) Dew Point ( °F °C ) Humidity (%) Winds ( mph kmh ) Pressure ( in mb ) Visibility ( mi km ) Precip ( " mm )
12:53 am 00:53 Clear 0 -17.8 -5 -20.6 79 79 SSW 5 7 30.65 1038 10 16 0.00 0.00
1:53 am 01:53 Clear 0 -17.8 -3 -19.4 87 87 S 6 9 30.63 1037 10 16 0.00 0.00
2:53 am 02:53 Clear 2 -16.7 -3 -19.4 80 80 S 6 9 30.60 1036 10 16 0.00 0.00
3:53 am 03:53 Clear 3 -16.1 -2 -18.9 79 79 S 7 11 30.57 1035 10 16 0.00 0.00
4:53 am 04:53 Clear 4 -15.6 0 -17.8 83 83 S 9 15 30.52 1034 10 16 0.00 0.00
5:53 am 05:53 Clear 4 -15.6 1 -17.2 88 88 S 12 19 30.49 1032 10 16 0.00 0.00
6:53 am 06:53 Clear 6 -14.4 2 -16.7 83 83 S 13 20 30.46 1032 10 16 0.00 0.00
7:53 am 07:53 Sunny 7 -13.9 3 -16.1 84 84 S 15 24 30.41 1030 10 16 0.00 0.00
8:53 am 08:53 Sunny 10 -12.2 5 -15 80 80 SSE 15 24 30.36 1028 10 16 0.00 0.00
9:53 am 09:53 Sunny 13 -10.6 7 -13.9 77 77 S 23 37 30.31 1026 10 16 0.00 0.00
10:53 am 10:53 Sunny 18 -7.8 9 -12.8 68 68 S 25 41 30.24 1024 10 16 0.00 0.00
11:53 am 11:53 Sunny 20 -6.7 10 -12.2 65 65 SSE 22 35 30.18 1022 10 16 0.00 0.00
12:53 pm 12:53 Sunny 22 -5.6 12 -11.1 66 66 S 24 39 30.13 1020 10 16 0.00 0.00
1:53 pm 13:53 Sunny 23 -5 13 -10.6 65 65 S 24 39 30.08 1019 10 16 0.00 0.00
2:53 pm 14:53 Sunny 25 -3.9 13 -10.6 60 60 S 21 33 30.05 1018 10 16 0.00 0.00
3:53 pm 15:53 Sunny 24 -4.4 14 -10 65 65 S 22 35 30.01 1016 10 16 0.00 0.00
4:53 pm 16:53 Sunny 25 -3.9 15 -9.4 66 66 S 18 30 29.97 1015 10 16 0.00 0.00
5:53 pm 17:53 Clear 25 -3.9 16 -8.9 69 69 S 15 24 29.96 1015 10 16 0.00 0.00
6:53 pm 18:53 Clear 24 -4.4 17 -8.3 75 75 S 15 24 29.96 1015 10 16 0.00 0.00
7:53 pm 19:53 Clear 24 -4.4 17 -8.3 75 75 S 14 22 29.91 1013 10 16 0.00 0.00
8:53 pm 20:53 Mostly Cloudy 25 -3.9 19 -7.2 78 78 S 13 20 29.89 1012 10 16 0.00 0.00
9:53 pm 21:53 Cloudy 25 -3.9 19 -7.2 78 78 S 13 20 29.88 1012 10 16 0.00 0.00
10:53 pm 22:53 Mostly Cloudy 25 -3.9 20 -6.7 81 81 S 7 11 29.86 1011 10 16 0.00 0.00
11:53 pm 23:53 Mostly Cloudy 26 -3.3 21 -6.1 81 81 S 6 9 29.83 1010 10 16 0.00 0.00

Powered by AerisWeather